�������l�o���
Date,Time,MP-1(��Sv/h),MP-2(��Sv/h),MP-3(��Sv/h),MP-4(��Sv/h),MP-5(��Sv/h),MP-6(��Sv/h),MP-7(��Sv/h),MP-8(��Sv/h),����,����(m/s),���J
2021/06/13,00:00,0.640,0.950,0.598,1.157,0.832,0.377,0.654,0.611,��쐼,2.9,��
2021/06/13,00:10,0.640,0.952,0.599,1.156,0.834,0.375,0.654,0.609,��쐼,2.9,��
2021/06/13,00:20,0.641,0.952,0.598,1.158,0.834,0.377,0.653,0.609,��쐼,3.1,��
2021/06/13,00:30,0.641,0.952,0.597,1.159,0.834,0.377,0.654,0.609,�쐼,2.0,��
2021/06/13,00:40,0.639,0.952,0.597,1.158,0.832,0.376,0.655,0.611,���쐼,1.1,��
2021/06/13,00:50,0.641,0.951,0.597,1.158,0.834,0.377,0.653,0.610,�k�k��,0.6,��
2021/06/13,01:00,0.643,0.950,0.599,1.160,0.833,0.378,0.655,0.610,-,CALM,��
2021/06/13,01:10,0.642,0.952,0.600,1.156,0.832,0.378,0.655,0.611,��쓌,0.6,��
2021/06/13,01:20,0.641,0.953,0.598,1.159,0.834,0.375,0.656,0.611,��,1.4,��
2021/06/13,01:30,0.641,0.951,0.600,1.157,0.835,0.377,0.655,0.610,��,1.7,��
2021/06/13,01:40,0.643,0.950,0.600,1.157,0.833,0.377,0.655,0.610,��쓌,2.6,��
2021/06/13,01:50,0.641,0.952,0.600,1.159,0.834,0.378,0.656,0.609,��,3.0,��
2021/06/13,02:00,0.641,0.951,0.598,1.159,0.833,0.378,0.655,0.611,��,2.6,��
2021/06/13,02:10,0.642,0.951,0.598,1.159,0.835,0.377,0.655,0.608,��,2.8,��
2021/06/13,02:20,0.643,0.950,0.599,1.160,0.833,0.377,0.654,0.609,��쐼,3.1,��
2021/06/13,02:30,0.641,0.951,0.598,1.160,0.832,0.376,0.655,0.609,��쐼,2.6,��
2021/06/13,02:40,0.642,0.952,0.598,1.157,0.834,0.377,0.655,0.611,��쐼,2.8,��
2021/06/13,02:50,0.639,0.952,0.598,1.158,0.833,0.377,0.655,0.609,��,2.3,��
2021/06/13,03:00,0.641,0.950,0.599,1.158,0.833,0.378,0.654,0.610,��쐼,1.5,��
2021/06/13,03:10,0.641,0.950,0.598,1.160,0.834,0.377,0.655,0.610,��쐼,1.7,��
2021/06/13,03:20,0.643,0.950,0.600,1.159,0.834,0.376,0.654,0.610,��쐼,2.2,��
2021/06/13,03:30,0.642,0.951,0.599,1.156,0.836,0.378,0.656,0.610,��쐼,2.2,��
2021/06/13,03:40,0.642,0.951,0.601,1.161,0.835,0.377,0.654,0.611,�쐼,2.0,��
2021/06/13,03:50,0.641,0.951,0.599,1.159,0.834,0.376,0.655,0.610,�쐼,1.5,��
2021/06/13,04:00,0.642,0.953,0.599,1.158,0.833,0.377,0.653,0.610,�쐼,1.5,��
2021/06/13,04:10,0.641,0.950,0.600,1.159,0.835,0.376,0.656,0.611,��쐼,1.7,��
2021/06/13,04:20,0.643,0.951,0.600,1.158,0.834,0.377,0.655,0.612,��,2.3,��
2021/06/13,04:30,0.641,0.951,0.599,1.160,0.833,0.377,0.655,0.611,��,2.3,��
2021/06/13,04:40,0.641,0.952,0.600,1.157,0.833,0.377,0.654,0.610,��쐼,2.6,��
2021/06/13,04:50,0.640,0.952,0.599,1.160,0.832,0.375,0.655,0.610,��쐼,2.0,��
2021/06/13,05:00,0.641,0.952,0.598,1.159,0.834,0.376,0.654,0.610,��쐼,1.7,��
2021/06/13,05:10,0.642,0.952,0.599,1.159,0.835,0.377,0.653,0.610,�쐼,0.9,��
2021/06/13,05:20,0.641,0.952,0.599,1.159,0.835,0.378,0.654,0.612,-,CALM,��
2021/06/13,05:30,0.641,0.954,0.599,1.159,0.834,0.377,0.654,0.611,�k��,0.9,��
2021/06/13,05:40,0.640,0.952,0.600,1.159,0.835,0.377,0.655,0.612,���k��,1.2,��
2021/06/13,05:50,0.641,0.954,0.600,1.161,0.832,0.377,0.656,0.610,�k��,1.4,��
2021/06/13,06:00,0.640,0.952,0.600,1.161,0.836,0.377,0.655,0.610,�k,1.7,��
2021/06/13,06:10,0.639,0.952,0.601,1.158,0.835,0.378,0.656,0.612,�k,1.7,��
2021/06/13,06:20,0.640,0.954,0.599,1.159,0.834,0.377,0.656,0.612,�k�k��,1.7,��
2021/06/13,06:30,0.642,0.949,0.600,1.159,0.834,0.377,0.655,0.611,�k�k��,1.2,��
2021/06/13,06:40,0.643,0.952,0.600,1.158,0.834,0.377,0.656,0.611,���k��,0.6,��
2021/06/13,06:50,0.641,0.952,0.599,1.159,0.832,0.377,0.655,0.610,-,CALM,��
2021/06/13,07:00,0.640,0.951,0.600,1.159,0.833,0.376,0.655,0.609,-,CALM,��
2021/06/13,07:10,0.641,0.949,0.598,1.159,0.834,0.376,0.653,0.610,�k�k��,0.6,��
2021/06/13,07:20,0.639,0.947,0.599,1.158,0.832,0.375,0.654,0.610,�k�k��,1.2,��
2021/06/13,07:30,0.637,0.950,0.599,1.159,0.832,0.375,0.653,0.609,�k�k��,1.7,��
2021/06/13,07:40,0.638,0.950,0.599,1.157,0.834,0.376,0.652,0.612,�k�k��,2.0,��
2021/06/13,07:50,0.641,0.952,0.598,1.158,0.835,0.375,0.652,0.610,�k�k��,2.2,��
2021/06/13,08:00,0.639,0.949,0.600,1.160,0.832,0.375,0.653,0.609,�k��,2.2,��
2021/06/13,08:10,0.637,0.949,0.601,1.159,0.834,0.376,0.653,0.609,�k�k��,2.3,��
2021/06/13,08:20,0.640,0.950,0.597,1.156,0.833,0.377,0.654,0.609,�k�k��,2.3,��
2021/06/13,08:30,0.639,0.946,0.598,1.158,0.833,0.375,0.656,0.609,�k,2.0,��
2021/06/13,08:40,0.638,0.947,0.599,1.159,0.835,0.376,0.652,0.609,�k,1.5,��
2021/06/13,08:50,0.637,0.951,0.597,1.159,0.833,0.375,0.654,0.607,�k,1.9,��
2021/06/13,09:00,0.640,0.946,0.598,1.156,0.832,0.374,0.653,0.608,�k�k��,2.5,��
2021/06/13,09:10,0.639,0.949,0.598,1.158,0.833,0.376,0.653,0.607,�k��,2.0,��
2021/06/13,09:20,0.640,0.947,0.598,1.156,0.834,0.377,0.654,0.607,�k��,2.0,��
2021/06/13,09:30,0.638,0.948,0.595,1.159,0.833,0.375,0.653,0.607,�k��,1.5,��
2021/06/13,09:40,0.640,0.948,0.596,1.158,0.832,0.374,0.653,0.609,�k��,1.5,��
2021/06/13,09:50,0.641,0.948,0.597,1.159,0.833,0.376,0.652,0.608,���k��,0.9,��
2021/06/13,10:00,0.640,0.950,0.595,1.154,0.832,0.374,0.654,0.609,��,0.9,��
2021/06/13,10:10,0.640,0.947,0.597,1.159,0.833,0.375,0.654,0.610,��,1.2,��
2021/06/13,10:20,0.640,0.948,0.597,1.157,0.833,0.374,0.655,0.608,���쓌,1.4,��
2021/06/13,10:30,0.639,0.949,0.597,1.157,0.834,0.376,0.655,0.608,�쓌,2.2,��
2021/06/13,10:40,0.640,0.948,0.596,1.155,0.833,0.374,0.654,0.610,��쓌,3.0,��
2021/06/13,10:50,0.641,0.950,0.596,1.157,0.832,0.376,0.654,0.608,��쓌,3.5,��
2021/06/13,11:00,0.641,0.949,0.596,1.157,0.833,0.375,0.652,0.608,��쓌,2.9,��
2021/06/13,11:10,0.640,0.950,0.597,1.158,0.831,0.376,0.652,0.609,��쓌,3.4,��
2021/06/13,11:20,0.640,0.951,0.597,1.158,0.835,0.375,0.653,0.609,��쓌,3.5,��
2021/06/13,11:30,0.639,0.952,0.597,1.158,0.833,0.375,0.654,0.609,��쓌,3.0,��
2021/06/13,11:40,0.640,0.950,0.595,1.155,0.832,0.375,0.653,0.609,��쓌,4.8,��
2021/06/13,11:50,0.641,0.950,0.597,1.154,0.832,0.376,0.654,0.608,��,5.2,��
2021/06/13,12:00,0.641,0.950,0.596,1.157,0.833,0.376,0.654,0.609,��쓌,5.1,��
2021/06/13,12:10,0.639,0.952,0.597,1.156,0.831,0.375,0.655,0.609,��쓌,5.9,��
2021/06/13,12:20,0.640,0.952,0.596,1.155,0.833,0.376,0.656,0.607,��쓌,6.1,��
2021/06/13,12:30,0.641,0.952,0.596,1.158,0.832,0.376,0.654,0.610,��쓌,7.7,��
2021/06/13,12:40,0.640,0.952,0.597,1.158,0.833,0.375,0.654,0.607,��쓌,9.3,��
2021/06/13,12:50,0.641,0.950,0.596,1.155,0.834,0.375,0.654,0.609,��쓌,8.8,��
2021/06/13,13:00,0.640,0.953,0.598,1.157,0.832,0.376,0.655,0.608,��,6.9,��
2021/06/13,13:10,0.641,0.952,0.597,1.156,0.833,0.374,0.654,0.610,��쓌,8.0,��
2021/06/13,13:20,0.642,0.949,0.599,1.160,0.834,0.375,0.655,0.608,��,8.9,��
2021/06/13,13:30,0.641,0.951,0.598,1.158,0.832,0.375,0.654,0.609,��쓌,9.8,��
2021/06/13,13:40,0.641,0.949,0.599,1.158,0.832,0.376,0.654,0.609,��,7.5,��
2021/06/13,13:50,0.642,0.953,0.597,1.157,0.833,0.378,0.656,0.610,��,7.0,��
2021/06/13,14:00,0.639,0.952,0.597,1.158,0.835,0.375,0.654,0.607,��,7.9,��
2021/06/13,14:10,0.639,0.951,0.597,1.156,0.835,0.376,0.655,0.608,��,8.4,��
2021/06/13,14:20,0.641,0.950,0.597,1.158,0.834,0.375,0.653,0.608,��쓌,8.5,��
2021/06/13,14:30,0.643,0.953,0.598,1.156,0.833,0.375,0.656,0.607,��,8.5,��
2021/06/13,14:40,0.641,0.950,0.598,1.158,0.836,0.376,0.654,0.609,��,8.2,��
2021/06/13,14:50,0.641,0.952,0.598,1.158,0.833,0.377,0.655,0.609,��,8.7,��
2021/06/13,15:00,0.639,0.953,0.597,1.159,0.835,0.376,0.653,0.608,��,9.2,��
2021/06/13,15:10,0.643,0.950,0.598,1.159,0.832,0.375,0.655,0.609,��쓌,9.3,��
2021/06/13,15:20,0.639,0.953,0.598,1.160,0.835,0.376,0.657,0.609,��,9.7,��
2021/06/13,15:30,0.642,0.951,0.598,1.158,0.834,0.376,0.655,0.609,��,9.9,��
2021/06/13,15:40,0.642,0.950,0.596,1.159,0.834,0.376,0.655,0.608,��,9.8,��
2021/06/13,15:50,0.642,0.951,0.598,1.158,0.835,0.375,0.656,0.608,��쓌,9.3,��
2021/06/13,16:00,0.641,0.950,0.599,1.156,0.833,0.376,0.654,0.607,��,8.0,��
2021/06/13,16:10,0.640,0.949,0.597,1.158,0.836,0.376,0.655,0.608,��,7.0,��
2021/06/13,16:20,0.641,0.952,0.598,1.158,0.834,0.375,0.654,0.609,��,7.4,��
2021/06/13,16:30,0.642,0.952,0.598,1.160,0.835,0.376,0.654,0.610,��,7.5,��
2021/06/13,16:40,0.640,0.952,0.597,1.157,0.833,0.376,0.655,0.606,��,6.8,��
2021/06/13,16:50,0.639,0.951,0.598,1.160,0.834,0.376,0.653,0.608,��,7.4,��
2021/06/13,17:00,0.642,0.955,0.597,1.160,0.834,0.377,0.655,0.608,��,7.7,��
2021/06/13,17:10,0.639,0.951,0.596,1.160,0.833,0.375,0.654,0.608,��,7.3,��
2021/06/13,17:20,0.640,0.954,0.598,1.161,0.833,0.376,0.654,0.610,��,7.1,��
2021/06/13,17:30,0.641,0.951,0.598,1.160,0.835,0.377,0.654,0.608,��,7.0,��
2021/06/13,17:40,0.642,0.952,0.597,1.160,0.835,0.376,0.654,0.609,��,6.8,��
2021/06/13,17:50,0.641,0.952,0.598,1.160,0.833,0.376,0.653,0.608,��,7.6,��
2021/06/13,18:00,0.640,0.952,0.598,1.161,0.834,0.376,0.653,0.610,��,8.3,��
2021/06/13,18:10,0.639,0.951,0.597,1.160,0.834,0.376,0.654,0.608,��,7.4,��
2021/06/13,18:20,0.639,0.952,0.600,1.162,0.835,0.375,0.653,0.608,��,6.8,��
2021/06/13,18:30,0.640,0.951,0.599,1.160,0.834,0.376,0.655,0.609,��,6.3,��
2021/06/13,18:40,0.639,0.950,0.599,1.164,0.834,0.378,0.656,0.610,��,5.1,��
2021/06/13,18:50,0.639,0.951,0.599,1.160,0.833,0.376,0.656,0.612,��,4.7,��
2021/06/13,19:00,0.640,0.952,0.599,1.162,0.835,0.378,0.656,0.610,��,5.1,��
2021/06/13,19:10,0.640,0.952,0.602,1.162,0.836,0.376,0.655,0.612,��,5.7,��
2021/06/13,19:20,0.642,0.954,0.598,1.162,0.833,0.378,0.657,0.610,��,4.0,�L
2021/06/13,19:30,0.640,0.952,0.601,1.163,0.835,0.376,0.654,0.611,��,3.4,��
2021/06/13,19:40,0.644,0.953,0.598,1.164,0.837,0.376,0.655,0.611,��쐼,3.0,�L
2021/06/13,19:50,0.642,0.955,0.600,1.164,0.836,0.377,0.655,0.610,��,2.6,�L
2021/06/13,20:00,0.641,0.954,0.603,1.163,0.837,0.377,0.656,0.610,��쐼,2.3,�L
2021/06/13,20:10,0.643,0.955,0.600,1.165,0.837,0.377,0.654,0.611,��쐼,2.8,��
2021/06/13,20:20,0.642,0.956,0.601,1.166,0.835,0.378,0.657,0.613,�쐼,2.6,��
2021/06/13,20:30,0.644,0.957,0.600,1.163,0.838,0.377,0.657,0.609,��쐼,0.8,��
2021/06/13,20:40,0.643,0.956,0.600,1.163,0.838,0.379,0.656,0.610,��쓌,2.6,��
2021/06/13,20:50,0.643,0.956,0.598,1.163,0.836,0.376,0.656,0.611,��,3.0,��
2021/06/13,21:00,0.645,0.955,0.601,1.162,0.839,0.377,0.657,0.611,��쐼,2.3,��
2021/06/13,21:10,0.641,0.957,0.600,1.166,0.838,0.376,0.656,0.611,��쐼,1.4,��
2021/06/13,21:20,0.644,0.955,0.600,1.163,0.837,0.378,0.656,0.610,�쐼,1.5,��
2021/06/13,21:30,0.642,0.956,0.601,1.162,0.838,0.377,0.655,0.612,���쐼,1.7,��
2021/06/13,21:40,0.642,0.955,0.601,1.166,0.838,0.377,0.657,0.613,��,1.1,��
2021/06/13,21:50,0.641,0.956,0.602,1.163,0.838,0.378,0.655,0.610,���k��,1.4,��
2021/06/13,22:00,0.642,0.956,0.601,1.163,0.836,0.376,0.657,0.610,�k��,1.2,��
2021/06/13,22:10,0.641,0.957,0.599,1.163,0.837,0.378,0.657,0.610,�k�k��,1.1,��
2021/06/13,22:20,0.643,0.957,0.601,1.162,0.835,0.376,0.657,0.610,�k,1.7,��
2021/06/13,22:30,0.643,0.956,0.601,1.163,0.835,0.379,0.657,0.611,�k,1.2,��
2021/06/13,22:40,0.644,0.955,0.601,1.163,0.837,0.377,0.658,0.610,�k��,1.2,��
2021/06/13,22:50,0.643,0.955,0.600,1.163,0.836,0.378,0.657,0.612,�k��,1.7,��
2021/06/13,23:00,0.643,0.953,0.601,1.164,0.838,0.377,0.656,0.613,�k��,1.9,��
2021/06/13,23:10,0.643,0.954,0.601,1.162,0.837,0.377,0.657,0.610,�k��,1.9,��
2021/06/13,23:20,0.644,0.956,0.603,1.162,0.835,0.378,0.657,0.612,�k��,1.4,��
2021/06/13,23:30,0.644,0.955,0.601,1.164,0.837,0.378,0.657,0.612,�k�k��,1.7,��
2021/06/13,23:40,0.644,0.956,0.601,1.162,0.837,0.378,0.657,0.612,�k�k��,1.7,��
2021/06/13,23:50,0.644,0.956,0.602,1.163,0.836,0.379,0.658,0.612,�k��,1.2,��
